Date,TemperatureHighF,TemperatureAvgF,TemperatureLowF,DewpointHighF,DewpointAvgF,DewpointLowF,HumidityHigh,HumidityAvg,HumidityLow,PressureMaxIn,PressureMinIn,WindSpeedMaxMPH,WindSpeedAvgMPH,GustSpeedMaxMPH,PrecipitationSumIn
2013-1-1,79,67,56,63,57,51,87,73,54,278.17,29.85,18,1,18,0.00
2013-1-2,82,70,-21,70,64,-24,90,82,67,29.89,29.81,15,1,15,0.00
2013-1-3,75,66,59,68,63,-1,92,88,75,29.98,29.84,28,1,28,0.30
2013-1-4,62,59,56,58,56,54,92,90,84,30.10,29.96,12,3,12,0.12
2013-1-5,74,64,57,62,58,52,91,79,64,30.11,29.99,11,2,11,0.00
2013-1-6,82,69,62,71,64,58,91,84,70,30.02,29.88,11,0,11,0.04
2013-1-7,65,63,60,63,59,55,91,86,76,30.03,29.92,15,3,15,0.02
2013-1-8,84,71,62,71,64,0,92,79,60,30.03,29.93,9,1,9,0.00
2013-1-9,87,76,68,72,67,64,92,77,56,30.10,29.98,7,0,7,0.00
2013-1-10,85,75,68,70,66,62,91,76,54,30.11,30.01,11,0,11,0.00
2013-1-11,86,74,67,69,64,61,86,72,50,30.08,29.95,17,1,17,0.00
2013-1-12,86,74,67,70,65,62,88,77,54,30.00,29.89,10,0,10,0.00
2013-1-13,84,73,67,69,64,62,85,75,57,29.99,29.87,8,0,8,0.00
2013-1-14,83,72,64,67,62,-32,87,72,52,30.00,29.92,9,0,9,0.00
2013-1-15,84,71,62,68,62,57,88,75,54,29.96,29.87,12,0,12,0.00
2013-1-16,85,72,64,68,63,59,88,75,50,29.92,29.82,12,1,12,0.00
2013-1-17,72,63,54,69,57,44,90,81,66,29.97,29.81,14,2,14,0.08
2013-1-18,64,50,0,54,41,-7,75,73,67,30.13,29.97,21,4,21,0.00
2013-1-19,76,63,55,60,54,47,82,71,57,30.09,29.94,16,3,16,0.00
2013-1-20,77,67,61,63,59,50,85,75,57,30.00,29.85,14,1,14,0.00
2013-1-21,77,66,60,64,57,52,85,74,61,29.92,29.84,8,0,8,0.00
2013-1-22,67,60,53,52,42,34,74,53,34,30.10,29.90,16,2,16,0.00
2013-1-23,71,58,50,43,40,35,72,53,33,30.19,30.08,12,0,12,0.00
2013-1-24,74,59,48,52,47,41,82,67,41,30.16,30.07,12,1,12,0.00
2013-1-25,78,62,52,58,50,47,86,68,41,30.13,30.01,32,0,32,0.00
2013-1-26,76,63,52,59,54,47,86,73,52,30.11,29.99,9,0,9,0.00
2013-1-27,80,66,55,60,55,50,89,68,44,30.13,30.02,13,1,13,0.00
2013-1-28,84,72,64,66,62,56,87,71,49,30.14,30.01,9,1,9,0.00
2013-1-29,88,73,64,70,64,60,89,75,50,30.05,29.90,15,2,15,0.00
2013-1-30,83,73,67,68,65,62,85,76,59,29.91,29.73,38,7,38,0.00
2013-1-31,70,58,48,66,46,35,89,64,41,30.06,29.73,16,1,16,0.14
2013-2-1,70,57,48,42,37,0,73,50,26,30.18,30.04,17,1,17,0.00
2013-2-2,77,59,50,48,43,38,74,56,29,30.13,29.98,13,1,13,0.00
2013-2-3,72,58,46,54,47,39,81,68,51,30.03,29.92,9,0,9,0.00
2013-2-4,77,58,46,52,44,40,81,62,30,29.97,29.86,7,0,7,0.00
2013-2-5,80,62,49,56,49,42,78,62,42,29.92,29.82,15,1,15,0.00
2013-2-6,85,70,61,62,59,53,82,68,46,29.93,29.84,12,1,12,0.00
2013-2-7,84,71,64,66,63,58,88,76,51,29.87,29.64,28,5,28,0.12
2013-2-8,79,68,59,65,60,5,89,78,56,29.91,29.72,10,1,10,0.02
2013-2-9,79,66,57,56,54,52,89,68,43,30.02,29.89,14,3,14,0.00
2013-2-10,86,71,62,65,60,54,82,68,46,30.06,29.94,86,3,86,0.00
2013-2-11,86,73,64,68,63,58,86,72,54,30.02,29.90,61,4,61,0.00
2013-2-12,85,74,67,72,67,64,89,81,65,29.92,29.77,20,5,20,0.00
2013-2-13,84,72,62,73,67,56,92,84,70,29.83,29.68,20,5,20,0.10
2013-2-14,65,63,60,61,58,57,90,86,80,29.88,29.74,9,0,9,0.55
2013-2-15,70,61,57,59,55,51,91,80,60,29.91,29.78,9,1,9,0.04
2013-2-16,69,58,52,54,47,36,85,67,50,29.96,29.77,16,2,16,0.00
2013-2-17,57,48,41,37,28,9,68,46,31,30.17,29.96,20,3,20,0.00
2013-2-18,74,55,38,48,39,30,72,56,38,30.18,30.02,11,2,11,0.00
2013-2-19,81,67,54,61,55,46,82,67,50,30.03,29.91,20,3,20,0.00
2013-2-20,76,64,61,62,58,54,87,81,63,29.92,2.11,6,0,6,0.00
2013-2-21,81,64,60,68,58,54,86,80,64,29.89,29.82,5,0,5,0.00
2013-2-22,84,70,64,70,64,59,87,81,63,29.86,29.82,9,2,9,0.00
2013-2-23,86,74,69,74,69,66,90,84,66,29.83,29.72,18,4,18,0.00
2013-2-24,84,74,70,72,68,66,90,83,66,29.79,29.70,12,2,12,0.00
2013-2-25,86,76,69,73,69,0,91,80,61,29.72,29.59,20,3,20,0.00
2013-2-26,77,72,66,71,67,61,89,83,71,29.72,29.52,26,3,26,0.45
2013-2-27,75,66,59,61,56,51,84,72,55,29.81,29.69,5,0,5,0.00
2013-2-28,76,64,54,57,52,-6,85,68,49,29.83,29.74,9,0,9,0.00
2013-3-1,67,58,53,48,44,0,76,61,51,29.86,29.74,8,0,8,0.00
2013-3-2,60,55,51,43,40,-32,70,58,51,29.91,29.81,57,0,57,0.00
2013-3-3,56,50,44,39,35,2,64,58,52,29.99,29.82,13,1,13,0.00
2013-3-4,69,54,18,44,38,0,71,54,36,30.06,29.95,57,1,57,0.00
2013-3-5,78,62,45,60,51,10,82,68,51,29.99,29.86,13,2,13,0.00
2013-3-6,66,60,54,62,47,40,88,63,43,29.97,29.79,13,3,13,0.00
2013-3-7,72,54,46,45,38,33,76,56,36,30.06,29.95,16,2,16,0.00
2013-3-8,77,59,46,48,44,39,82,61,33,30.06,29.95,10,1,10,0.00
2013-3-9,78,64,51,51,47,10,79,57,35,30.04,29.94,15,1,15,0.00
2013-3-10,85,68,59,58,54,50,80,62,39,29.98,29.86,12,2,12,0.00
2013-3-11,82,70,62,63,58,3,80,68,52,29.93,29.72,64,4,64,0.00
2013-3-12,69,64,57,65,58,0,90,80,68,29.88,29.67,18,3,18,0.47
2013-3-13,74,62,56,51,45,28,80,56,30,30.01,29.86,19,2,19,0.00
2013-3-14,68,58,52,48,38,31,73,50,27,30.11,29.99,16,1,16,0.00
2013-3-15,72,58,46,45,41,35,80,56,31,30.12,29.98,12,1,12,0.00
2013-3-16,82,62,48,56,49,42,82,64,35,30.02,29.90,11,1,11,0.00
2013-3-17,82,66,53,62,56,48,87,72,50,29.95,29.82,13,1,13,0.00
2013-3-18,74,68,63,66,62,56,87,79,72,29.85,29.71,13,2,13,0.00
2013-3-19,88,72,63,68,63,60,90,76,48,29.84,29.72,12,1,12,0.00
2013-3-20,74,67,60,66,61,57,89,82,69,29.80,29.63,14,1,14,0.19
2013-3-21,70,60,50,57,45,36,90,61,30,29.83,29.70,16,1,16,0.00
2013-3-22,82,64,48,65,52,41,88,68,43,29.82,29.70,16,2,16,0.08
2013-3-23,84,72,66,75,68,0,91,85,71,29.79,29.62,21,3,21,0.00
2013-3-24,81,74,70,74,70,66,91,88,77,29.67,29.48,21,4,21,0.00
2013-3-25,71,63,56,65,49,0,89,63,38,29.89,29.57,13,2,13,0.00
2013-3-26,59,55,49,46,38,34,66,53,43,30.08,29.87,12,2,12,0.00
2013-3-27,60,52,46,39,36,-18,70,55,42,30.16,30.04,12,2,12,0.00
2013-3-28,74,57,-21,43,38,-27,79,53,26,30.13,30.02,12,1,12,0.00
2013-3-29,80,62,48,49,44,40,80,54,26,30.15,30.01,12,1,12,0.00
2013-3-30,80,65,52,58,51,44,79,62,41,30.08,29.96,61,2,61,0.00
2013-3-31,84,69,58,61,57,50,79,66,44,29.99,29.83,18,3,18,0.00
2013-4-1,82,73,67,70,64,60,85,75,61,29.86,29.79,10,2,10,0.00
2013-4-2,86,72,63,67,62,0,88,73,51,29.92,29.82,14,1,14,0.00
2013-4-3,89,74,66,71,65,59,87,74,50,29.90,29.76,20,2,20,0.04
2013-4-4,74,70,67,68,66,64,91,87,77,29.87,29.67,14,3,14,0.67
2013-4-5,73,68,62,66,60,55,90,79,57,29.82,29.64,14,2,14,0.02
2013-4-6,80,66,57,60,55,50,83,70,47,29.93,29.80,15,2,15,0.00
2013-4-7,88,72,62,64,59,57,86,65,41,29.97,29.86,6,1,8,0.00
2013-4-8,91,76,67,64,61,21,78,62,36,29.95,29.85,8,0,8,0.00
2013-4-9,92,77,68,68,64,3,82,65,44,29.98,29.88,9,1,9,0.00
2013-4-10,92,77,66,69,65,61,85,66,42,29.94,29.77,9,0,9,0.00
2013-4-11,94,80,72,74,70,64,88,74,52,29.81,29.63,24,4,24,0.02
2013-4-12,79,76,72,74,71,67,87,84,78,29.75,29.60,21,4,21,0.00
2013-4-13,90,77,69,71,67,63,89,73,51,29.80,29.69,8,1,8,0.00
2013-4-14,87,76,67,75,68,60,86,77,65,29.83,29.67,20,3,20,0.08
2013-4-15,94,78,68,72,66,60,82,67,48,29.89,29.75,8,0,8,0.00
2013-4-16,96,80,-4,74,68,-8,89,68,45,29.95,29.84,12,2,12,0.00
2013-4-17,92,79,70,68,65,62,85,64,42,29.96,29.82,12,2,12,0.00
2013-4-18,94,80,71,72,68,64,82,67,49,29.87,29.76,13,2,13,0.00
2013-4-19,92,81,74,75,71,69,86,73,53,29.83,29.75,27,5,27,0.00
2013-4-20,77,71,63,71,63,57,86,77,66,29.96,29.80,14,3,14,0.00
2013-4-21,87,71,62,70,63,57,88,77,57,29.96,29.84,14,3,14,0.02
2013-4-22,82,73,68,70,66,62,91,79,60,29.91,29.79,13,3,13,0.02
2013-4-23,87,75,67,68,63,59,84,68,46,29.93,29.82,13,3,13,0.00
2013-4-24,91,76,65,65,62,60,83,65,36,29.96,29.88,10,1,10,0.00
2013-4-25,88,76,66,69,65,3,83,69,51,30.03,29.92,10,1,10,0.00
2013-4-26,92,78,66,69,65,-30,83,67,42,30.06,29.96,11,1,11,0.00
2013-4-27,91,76,71,68,66,64,86,73,41,30.04,29.89,11,1,11,0.00
2013-4-28,92,79,70,66,64,62,77,63,39,29.94,29.78,12,2,12,0.00
2013-4-29,86,77,70,70,67,63,82,71,56,29.85,29.72,11,2,11,0.16
2013-4-30,92,74,69,71,68,0,91,82,43,29.82,29.72,10,1,10,0.73
2013-5-1,75,71,67,71,68,64,91,88,84,29.82,29.73,11,1,11,1.19
2013-5-2,81,72,67,73,67,0,91,85,68,29.79,29.63,8,1,8,0.73
2013-5-3,84,76,68,71,68,64,91,79,61,29.66,29.54,10,1,10,0.39
2013-5-4,81,73,67,70,66,63,88,78,65,29.64,29.50,11,1,11,0.39
2013-5-5,82,70,64,65,56,51,90,63,44,29.77,29.62,14,1,14,0.39
2013-5-6,82,70,63,62,57,53,74,63,46,29.84,29.72,8,0,8,0.39
2013-5-7,82,70,30,61,58,20,81,67,50,29.88,29.79,12,1,12,0.39
2013-5-8,81,72,62,63,60,56,84,68,49,29.96,29.85,8,1,8,0.39
2013-5-9,89,74,63,68,62,58,85,68,45,29.98,29.90,8,0,8,0.39
2013-5-10,92,78,66,71,66,61,88,70,45,29.96,29.81,13,1,13,0.39
2013-5-11,90,79,74,74,71,-24,89,77,53,29.88,29.81,13,2,13,0.39
2013-5-12,88,78,72,73,69,-18,89,75,59,29.87,29.76,8,1,8,0.39
2013-5-13,84,74,67,67,59,49,85,63,35,29.96,29.83,8,0,8,0.39
2013-5-14,87,72,63,58,50,46,65,47,29,30.03,29.93,13,1,13,0.00
2013-5-15,89,77,67,62,58,55,73,54,34,30.03,29.88,12,0,12,0.00
2013-5-16,89,78,70,66,62,60,75,60,40,29.95,29.81,11,0,11,0.00
2013-5-17,89,79,71,68,65,62,77,64,47,29.92,29.84,11,1,11,0.00
2013-5-18,91,80,73,73,68,64,86,71,44,29.93,29.86,10,1,10,0.00
2013-5-19,90,80,70,73,67,65,88,65,46,29.91,29.80,8,0,8,0.00
2013-5-20,93,81,74,74,69,65,79,68,50,29.89,29.78,11,1,11,0.00
2013-5-21,90,78,72,72,69,66,87,74,51,29.86,29.74,12,1,12,0.00
2013-5-22,91,80,73,73,69,67,84,72,53,29.79,29.71,7,1,7,0.00
2013-5-23,90,80,71,73,70,67,89,73,57,29.83,29.73,8,1,8,0.00
2013-5-24,93,82,72,75,69,63,89,68,44,29.90,29.80,9,0,9,0.00
2013-5-25,92,82,75,69,65,61,76,57,38,29.99,29.87,13,2,13,0.00
2013-5-26,88,79,71,64,59,53,73,53,33,30.03,29.91,12,2,12,0.00
2013-5-27,91,80,71,69,63,61,77,59,40,30.00,29.85,12,2,12,0.00
2013-5-28,94,80,72,74,70,65,84,72,47,29.96,29.84,18,3,18,0.00
2013-5-29,91,80,74,73,70,67,88,73,51,29.91,29.83,14,3,14,0.00
2013-5-30,91,81,76,73,71,68,86,72,54,29.90,29.81,15,4,15,0.00
2013-5-31,90,80,74,75,71,68,84,75,58,29.90,29.81,12,2,12,0.00
2013-6-1,90,79,74,76,72,70,91,80,62,29.87,29.76,9,1,9,0.02
2013-6-2,91,81,74,79,74,71,93,79,61,29.82,29.71,10,1,10,0.00
2013-6-3,88,81,76,77,74,71,90,80,64,29.82,29.72,15,2,15,0.00
2013-6-4,86,80,76,76,73,71,86,78,66,29.83,29.75,11,2,11,0.00
2013-6-5,86,79,74,75,72,70,89,79,65,29.83,29.70,13,1,13,0.00
2013-6-6,81,76,74,76,72,70,95,88,77,29.71,29.47,30,5,30,4.04
2013-6-7,86,80,73,76,73,69,92,79,66,29.78,29.60,9,1,9,0.00
2013-6-8,90,80,73,78,73,70,92,81,66,29.91,29.77,15,2,15,1.29
2013-6-9,92,80,73,77,73,70,93,80,60,29.91,29.82,13,1,13,0.00
2013-6-10,90,83,76,77,74,11,89,75,59,29.90,29.82,9,1,9,0.00
2013-6-11,90,81,75,78,74,70,89,79,64,29.91,29.83,10,1,10,0.00
2013-6-12,93,83,74,79,73,70,91,74,56,29.91,29.82,9,0,9,0.00
2013-6-13,92,83,76,76,74,0,88,74,56,29.87,29.73,71,1,71,0.00
2013-6-14,88,82,78,74,73,71,82,74,59,29.78,29.70,12,1,12,0.00
2013-6-15,89,83,78,78,75,13,88,77,64,29.87,29.73,8,1,8,0.00
2013-6-16,93,84,78,78,75,73,88,77,60,29.90,29.82,10,1,10,0.00
2013-6-17,94,85,77,80,74,73,87,71,54,29.90,29.80,10,1,10,0.00
2013-6-18,93,85,76,80,74,72,88,72,54,29.87,29.78,10,1,10,0.00
2013-6-19,96,85,78,79,75,73,90,73,54,29.86,29.79,9,1,9,0.00
2013-6-20,98,84,78,79,74,69,86,71,49,29.93,29.82,9,1,9,0.00
2013-6-21,91,82,76,76,72,68,85,73,54,29.93,29.85,10,1,10,0.00
2013-6-22,92,82,74,76,71,67,88,72,52,29.93,29.85,15,1,15,0.00
2013-6-23,93,81,75,78,73,0,90,78,51,29.95,29.87,14,1,14,0.04
2013-6-24,94,84,76,78,74,71,89,74,50,30.00,29.86,17,1,17,0.00
2013-6-25,94,83,72,79,73,65,90,73,48,29.96,29.83,14,1,14,1.08
2013-6-26,92,81,75,79,74,71,92,80,58,29.90,29.82,9,1,9,1.47
2013-6-27,94,82,74,80,74,70,92,77,59,29.87,29.76,12,1,12,0.00
2013-6-28,89,83,76,77,75,72,90,77,64,29.80,29.66,13,1,13,0.00
2013-6-29,82,79,75,77,74,71,89,84,76,29.71,29.62,21,1,21,0.24
2013-6-30,88,81,75,78,75,71,89,81,70,29.70,29.61,17,3,17,0.00
2013-7-1,79,76,72,76,73,69,94,91,87,29.84,29.65,14,4,14,84.35
2013-7-2,79,70,0,76,68,0,100,91,88,29.90,29.77,14,4,14,0.98
2013-7-3,83,21,0,71,10,-11,100,86,60,29.92,29.84,11,2,11,1.43
2013-7-4,91,80,76,77,71,66,86,74,53,29.93,29.86,14,1,14,0.20
2013-7-5,90,55,-20,78,48,-32,91,77,52,29.93,29.88,11,1,11,70.71
2013-7-6,93,83,75,78,74,72,91,78,53,29.92,29.83,10,1,10,0.00
2013-7-7,95,72,0,75,64,-4,100,78,53,29.94,29.83,11,2,11,0.00
2013-7-8,94,82,77,77,65,-13,85,65,51,29.97,29.87,9,1,9,0.02
2013-7-9,93,82,77,80,71,-8,85,73,50,29.98,29.85,10,1,10,0.00
2013-7-10,86,80,78,71,65,-14,79,66,50,29.91,29.77,11,1,11,0.00
2013-7-11,88,84,64,83,59,-14,95,67,45,29.85,29.73,11,1,11,0.57
2013-7-12,89,81,76,78,64,-11,91,78,35,29.77,29.70,8,1,8,71.32
2013-7-13,87,79,73,77,73,18,96,82,67,29.78,29.73,13,1,13,0.02
2013-7-14,90,75,0,79,68,-21,100,77,35,29.89,29.77,10,1,10,0.00
2013-7-15,91,82,76,74,71,-22,84,73,55,29.93,29.82,10,1,10,0.00
2013-7-16,92,81,76,74,70,-7,83,73,35,29.96,29.82,12,2,12,0.00
2013-7-17,99,80,73,98,70,-11,99,74,57,29.97,29.88,9,2,9,0.00
2013-7-18,89,73,0,76,67,0,100,82,61,29.93,1.52,16,1,16,0.24
2013-7-19,89,79,74,78,74,71,92,86,69,29.94,29.86,14,1,14,0.98
2013-7-20,91,81,75,80,75,46,93,82,64,29.92,29.83,10,1,10,0.00
2013-7-21,92,84,77,80,77,72,91,79,65,29.94,29.85,11,1,11,0.00
2013-7-22,92,85,79,80,77,-28,90,78,65,29.95,29.87,12,1,12,0.00
2013-7-23,91,84,80,78,76,74,87,76,63,29.92,29.79,10,1,10,0.00
2013-7-24,90,84,80,78,76,-25,85,77,65,29.83,29.72,13,2,13,0.00
2013-7-25,89,84,80,78,77,-24,85,79,67,29.82,29.69,28,3,28,0.04
2013-7-26,92,83,77,80,77,73,95,83,64,29.84,29.76,9,0,9,0.57
2013-7-27,96,85,78,79,76,49,93,76,53,29.82,29.73,8,0,8,0.00
2013-7-28,93,84,78,79,75,65,89,76,61,29.87,29.75,14,1,14,0.00
2013-7-29,98,84,76,80,75,72,89,76,54,29.96,29.83,16,0,16,0.26
2013-7-30,97,84,76,78,76,73,91,78,49,29.99,29.87,16,1,16,0.65
2013-7-31,96,84,78,79,76,71,93,78,52,29.95,29.82,10,1,10,0.00
2013-8-1,94,84,80,80,75,50,85,75,35,29.87,29.76,10,1,10,0.00
2013-8-2,94,83,77,80,75,72,88,78,61,29.86,29.76,15,0,15,0.14
2013-8-3,93,85,77,79,76,74,91,76,59,29.91,29.82,8,1,8,0.00
2013-8-4,92,85,-21,79,77,-26,89,75,62,29.91,29.81,12,1,12,0.00
2013-8-5,94,86,80,80,77,51,86,75,62,29.86,29.75,9,1,9,0.00
2013-8-6,93,83,77,81,77,-26,89,82,67,29.80,29.70,28,1,28,0.47
2013-8-7,96,83,75,80,76,48,92,80,35,29.79,29.69,14,1,14,0.92
2013-8-8,94,83,75,79,76,48,93,82,58,29.84,29.73,10,1,10,0.78
2013-8-9,95,82,76,79,75,65,92,82,53,29.87,29.77,8,1,8,0.55
2013-8-10,96,84,76,79,76,73,92,78,54,29.93,29.84,13,1,13,0.00
2013-8-11,97,87,80,80,76,66,87,73,53,29.97,29.85,61,1,61,0.00
2013-8-12,96,86,78,81,77,-24,90,77,57,29.94,29.81,22,0,22,0.26
2013-8-13,97,85,78,79,76,53,90,76,35,29.87,29.75,10,1,10,0.00
2013-8-14,96,85,79,80,77,53,86,77,58,29.82,29.74,14,1,14,0.00
2013-8-15,93,85,79,79,76,-25,86,76,62,29.85,29.76,12,2,12,0.00
2013-8-16,96,86,81,80,76,73,82,74,56,29.86,29.77,10,1,10,0.00
2013-8-17,95,84,76,81,76,72,92,79,60,29.89,29.79,15,1,15,0.71
2013-8-18,96,83,77,80,77,63,92,83,58,29.91,29.82,14,1,14,0.18
2013-8-19,97,82,-10,80,76,-20,93,82,52,29.91,29.77,14,1,14,0.59
2013-8-20,95,82,75,80,76,73,93,82,57,29.89,29.80,10,1,10,0.04
2013-8-21,97,83,78,81,76,70,92,80,52,29.92,29.79,14,1,14,0.22
2013-8-22,95,82,74,80,76,69,93,84,58,29.90,29.77,36,1,36,2.77
2013-8-23,94,82,78,81,76,-13,95,83,57,29.84,29.76,30,5,30,0.13
2013-8-24,96,81,77,80,76,73,92,86,54,29.93,29.80,16,0,16,0.00
2013-8-25,90,81,78,77,75,33,90,81,45,29.97,29.88,10,2,10,0.00
2013-8-26,95,82,77,78,75,72,91,81,53,29.95,29.81,16,1,16,0.32
2013-8-27,94,82,76,78,75,-26,92,79,54,29.87,29.78,13,2,13,0.00
2013-8-28,94,82,75,76,74,71,89,76,52,29.87,29.78,11,1,11,0.00
2013-8-29,93,84,76,76,74,71,87,73,55,29.85,29.75,12,0,12,0.00
2013-8-30,92,82,-12,79,75,-16,88,80,61,29.82,29.71,12,1,12,0.10
2013-8-31,92,83,76,78,75,72,91,78,60,29.81,29.70,9,0,9,0.12
2013-9-1,93,84,78,79,76,73,91,77,60,29.80,29.72,9,1,9,0.19
2013-9-2,93,84,78,80,76,74,92,78,59,29.84,29.75,6,0,6,0.19
2013-9-3,94,84,76,79,76,67,93,78,61,29.85,29.75,7,0,7,0.53
2013-9-4,96,83,77,80,76,72,91,79,55,29.91,29.78,13,1,13,0.12
2013-9-5,97,83,77,81,76,72,92,79,52,29.91,29.80,12,1,12,0.55
2013-9-6,97,82,76,81,76,71,93,83,55,29.87,29.75,17,1,17,0.20
2013-9-7,94,81,73,77,73,-23,91,78,53,29.84,29.73,11,1,11,0.00
2013-9-8,93,83,74,76,73,71,92,74,53,29.79,29.67,9,1,9,0.00
2013-9-9,95,85,77,76,73,70,87,69,49,29.84,29.74,11,2,11,0.00
2013-9-10,94,85,78,76,73,61,86,69,47,29.90,29.80,22,3,22,0.00
2013-9-11,96,85,77,76,73,69,87,69,45,29.89,29.79,14,2,14,0.00
2013-9-12,94,82,76,78,74,-25,90,78,58,29.85,29.70,11,1,11,0.17
2013-9-13,89,80,74,78,74,70,93,84,68,29.74,29.63,12,0,12,3.38
2013-9-14,91,82,75,80,75,72,94,82,66,29.79,29.65,6,0,6,0.08
2013-9-15,98,82,74,80,75,-14,92,81,52,29.90,29.77,23,2,23,0.45
2013-9-16,96,81,76,79,74,73,92,81,52,29.89,29.78,9,1,9,0.00
2013-9-17,94,82,76,77,74,32,90,79,55,29.87,29.75,14,2,14,0.00
2013-9-18,95,82,77,78,74,71,89,80,55,29.84,29.77,13,2,13,0.19
2013-9-19,92,81,75,78,74,72,92,81,58,29.87,29.77,13,2,13,0.75
2013-9-20,92,82,74,76,73,69,92,74,53,29.84,29.70,9,1,9,0.00
2013-9-21,94,83,76,75,72,69,82,70,51,29.76,29.59,10,1,10,0.00
2013-9-22,92,83,79,80,76,74,89,81,67,29.67,29.57,14,1,14,0.02
2013-9-23,84,80,78,80,76,74,94,91,86,29.75,29.63,28,1,28,1.14
2013-9-24,81,78,75,78,76,74,97,93,90,29.78,29.66,11,2,11,1.57
2013-9-25,81,77,71,78,74,70,96,93,86,29.75,29.60,15,1,15,2.74
2013-9-26,89,82,76,81,77,72,94,84,70,29.69,29.59,10,1,10,0.00
2013-9-27,89,79,72,74,71,69,91,78,59,29.78,29.68,13,3,13,0.00
2013-9-28,92,80,73,75,72,56,91,77,56,29.83,29.73,13,3,13,0.00
2013-9-29,91,78,73,74,70,68,87,78,52,29.81,29.71,10,2,10,0.00
2013-9-30,93,82,75,76,72,69,86,74,51,29.81,29.72,9,1,9,0.00
2013-10-1,94,83,75,77,73,69,90,72,51,29.86,29.77,13,1,13,0.00
2013-10-2,93,83,75,76,72,70,87,72,54,29.87,29.77,10,2,10,0.00
2013-10-3,93,83,76,75,72,64,85,71,51,29.88,29.78,9,1,9,0.00
2013-10-4,92,83,78,76,74,59,86,75,56,29.90,29.81,8,1,8,0.00
2013-10-5,94,83,76,76,73,70,86,72,53,29.87,29.75,10,1,10,0.00
2013-10-6,94,83,76,77,74,72,90,75,50,29.81,29.67,9,1,9,0.00
2013-10-7,85,80,76,79,76,73,93,86,82,29.69,29.57,15,2,15,17.72
2013-10-8,90,82,-11,79,75,-16,87,80,69,29.77,29.62,11,2,11,17.72
2013-10-9,81,76,71,71,69,66,84,80,68,29.86,29.75,11,2,11,0.00
2013-10-10,90,77,69,72,68,65,88,75,54,29.87,29.77,8,1,8,0.00
2013-10-11,90,78,69,72,68,64,89,71,51,29.87,29.76,8,0,8,0.00
2013-10-12,90,77,69,69,65,24,88,69,45,29.87,29.79,10,1,10,0.00
2013-10-13,89,77,67,73,65,53,88,68,44,29.90,29.80,9,0,9,0.00
2013-10-14,88,77,70,70,67,54,89,72,51,29.87,29.74,11,2,11,0.00
2013-10-15,86,76,70,73,69,66,89,80,64,29.83,29.71,10,2,10,0.00
2013-10-16,86,76,70,74,69,48,91,80,44,29.79,29.71,9,0,9,0.00
2013-10-17,92,79,71,75,71,-15,91,77,56,29.80,29.71,14,1,14,0.00
2013-10-18,94,81,72,78,73,53,91,78,56,29.80,29.71,8,0,8,0.00
2013-10-19,92,81,76,78,74,71,88,80,59,29.77,29.68,11,1,11,0.00
2013-10-20,91,80,76,78,74,71,92,81,61,29.77,29.69,86,0,86,0.00
2013-10-21,91,80,75,78,73,70,92,80,57,29.82,29.73,5,0,5,0.00
2013-10-22,91,79,73,79,73,53,93,84,66,29.77,29.64,14,1,14,0.37
2013-10-23,82,75,71,73,66,55,93,73,48,29.83,29.63,17,1,17,0.02
2013-10-24,74,69,64,61,52,47,73,55,44,29.99,29.82,14,2,14,0.00
2013-10-25,83,71,62,61,57,54,86,65,40,30.06,29.96,10,1,10,0.00
2013-10-26,83,71,63,62,58,-33,80,65,34,30.03,29.91,10,1,10,0.00
2013-10-27,83,70,62,61,58,54,84,67,44,29.95,29.87,11,1,11,0.00
2013-10-28,87,72,61,65,58,54,85,64,39,30.01,29.90,9,0,9,0.00
2013-10-29,87,76,68,69,65,60,87,69,48,30.05,29.94,12,2,12,0.00
2013-10-30,89,78,69,71,67,49,86,71,51,30.05,29.90,12,2,12,0.00
2013-10-31,91,78,32,72,68,-23,87,73,49,29.95,29.79,11,1,11,0.00
2013-11-1,88,79,74,77,73,54,89,82,48,29.82,29.70,17,3,17,0.00
2013-11-2,79,73,65,75,69,62,93,87,76,29.81,29.63,12,1,12,0.92
2013-11-3,80,68,61,62,54,47,92,64,34,29.94,29.79,13,2,13,0.02
2013-11-4,82,71,62,64,59,52,79,66,47,29.97,29.89,15,5,15,0.00
2013-11-5,84,76,68,71,67,49,87,76,62,29.97,29.86,14,4,14,0.00
2013-11-6,90,78,73,71,68,66,84,71,49,29.94,29.82,11,3,11,0.00
2013-11-7,84,74,-12,71,67,-16,88,79,62,29.88,29.79,8,0,8,0.00
2013-11-8,81,73,66,68,64,-18,90,75,46,29.93,29.82,16,4,16,0.00
2013-11-9,85,75,66,70,64,60,81,71,58,29.98,29.89,13,4,13,0.00
2013-11-10,85,75,69,70,66,-20,83,74,57,29.98,29.88,10,2,10,0.00
2013-11-11,85,74,68,70,66,39,89,76,34,29.98,29.87,9,2,9,0.00
2013-11-12,80,72,67,71,66,57,90,82,65,29.93,29.83,14,0,14,0.00
2013-11-13,70,63,56,58,51,48,75,66,59,30.12,29.90,26,6,26,19.05
2013-11-14,80,66,54,60,55,-27,83,69,50,30.11,29.97,15,3,15,0.00
2013-11-15,73,70,65,66,62,58,85,79,70,29.99,29.87,14,2,14,0.02
2013-11-16,78,73,69,72,68,65,90,85,79,29.94,29.84,7,1,7,0.02
2013-11-17,86,76,70,74,69,26,89,79,64,29.90,29.81,8,1,8,0.00
2013-11-18,87,76,70,74,70,-15,90,82,65,29.85,29.75,14,1,14,0.00
2013-11-19,84,75,68,73,69,-15,93,83,69,29.80,29.69,28,2,28,0.00
2013-11-20,84,73,66,74,67,62,88,82,69,29.91,29.78,10,3,10,0.00
2013-11-21,88,77,72,74,71,68,91,81,61,30.00,29.89,14,4,14,0.00
2013-11-22,86,77,72,73,70,61,89,78,47,30.00,29.90,10,2,10,0.00
2013-11-23,87,74,-21,71,66,-23,92,77,54,29.94,29.83,14,1,14,0.00
2013-11-24,71,67,60,67,60,-15,91,80,71,30.04,29.85,19,5,19,0.00
2013-11-25,78,69,60,64,59,53,82,71,59,30.04,29.85,18,4,18,0.00
2013-11-26,83,74,69,74,70,64,94,87,74,29.85,29.58,28,5,28,0.26
2013-11-27,73,65,30,71,57,24,94,77,66,30.03,29.56,13,3,13,0.04
2013-11-28,65,54,43,50,42,34,80,67,49,30.16,30.03,13,3,13,0.00
2013-11-29,74,62,54,58,54,-20,86,74,55,30.17,30.07,15,4,15,0.00
2013-11-30,77,66,57,65,58,29,89,77,34,30.13,29.98,16,4,16,0.00
2013-12-1,77,66,61,67,61,34,92,84,70,30.01,29.80,10,1,10,0.00
2013-12-2,72,66,61,63,59,56,92,79,62,29.81,29.67,8,0,8,0.00
2013-12-3,81,71,61,68,64,34,89,79,34,29.80,29.70,11,1,11,0.00
2013-12-4,87,75,69,74,69,65,90,80,62,29.89,29.77,14,1,14,0.00
2013-12-5,86,75,69,70,67,59,89,79,57,29.98,29.89,8,1,8,0.00
2013-12-6,87,75,67,74,69,42,94,83,34,29.99,29.90,16,2,16,19.39
2013-12-7,87,76,68,73,68,65,91,79,54,30.06,29.95,14,0,14,0.00
2013-12-8,88,76,68,73,68,65,91,78,58,30.04,29.91,14,0,14,0.00
2013-12-9,86,76,70,75,69,66,90,81,65,30.00,29.90,17,2,17,0.00
2013-12-10,85,75,66,74,69,63,92,83,68,29.99,29.90,14,1,14,0.00
2013-12-11,84,73,65,69,65,60,88,79,61,30.06,29.96,11,2,11,0.00
2013-12-12,73,66,57,65,54,37,92,67,37,30.13,30.01,15,3,15,0.00
2013-12-13,78,65,54,60,53,40,81,66,45,30.11,29.91,12,2,12,0.00
2013-12-14,87,75,66,73,68,49,89,79,62,29.93,29.76,21,4,21,0.00
2013-12-15,74,69,61,72,64,-18,94,83,68,29.96,29.71,14,2,14,0.04
2013-12-16,68,59,53,55,49,45,83,69,48,30.05,29.93,13,2,13,0.00
2013-12-17,73,60,51,53,48,-8,81,66,48,30.08,29.97,12,1,12,0.00
2013-12-18,73,61,52,54,49,-4,87,67,39,30.11,30.01,14,1,14,0.00
2013-12-19,78,64,50,62,52,-26,83,68,46,30.09,29.97,8,1,8,0.00
2013-12-20,86,73,64,70,64,57,84,73,56,30.01,29.89,10,1,10,0.00
2013-12-21,88,76,68,74,69,49,91,79,60,29.95,29.82,15,2,15,0.00
2013-12-22,87,76,70,75,70,-3,92,82,67,29.95,29.87,24,3,24,0.00
2013-12-23,86,76,70,76,71,-3,94,86,48,29.98,29.91,19,3,19,0.00
2013-12-24,74,65,55,72,52,38,91,66,34,30.08,29.94,16,3,16,0.00
2013-12-25,78,63,51,61,51,38,73,64,54,30.08,29.93,14,3,14,0.00
2013-12-26,79,68,61,64,60,-26,86,75,57,30.02,29.90,12,2,12,0.00
2013-12-27,72,66,62,66,62,-5,89,85,79,30.06,29.94,13,4,13,0.02
2013-12-28,81,72,66,71,67,-2,93,85,71,30.03,29.80,14,2,14,0.00
2013-12-29,77,71,-21,73,68,-23,93,90,34,29.84,29.70,19,2,19,1.28
2013-12-30,68,64,62,62,60,35,94,89,34,30.01,20.01,4,0,4,0.05
2013-12-31,69,65,62,58,54,52,82,69,58,30.11,29.97,10,2,10,0.00
2014-1-1,65,62,60,63,58,52,94,87,65,30.07,29.86,28,3,28,0.14
2014-1-2,81,70,61,75,68,56,95,91,80,29.87,20.50,25,3,25,21.39